Skip Page Navigation
NASA JPL Caltech
NASA Logo - Jet Propulsion Laboratory + View the NASA Portal
+ Center for Near-Earth Object Studies
JPL Home Earth Solar System Stars & Galaxies Technology
JPL Solar System Dynamics
BODIES ORBITS EPHEMERIDES TOOLS PHYSICAL DATA DISCOVERY FAQ SITE MAP
JPL Small-Body Database Browser
Search: [ help ]  
49670 (1999 RZ33)
Classification: Inner Main-belt Asteroid          SPK-ID: 2049670
Ephemeris | Orbit Diagram | Orbital Elements | Mission Design | Physical Parameters | Discovery Circumstances ]

[ show orbit diagram ]
Orbital Elements at Epoch 2459000.5 (2020-May-31.0) TDB
Reference: JPL 14 (heliocentric ecliptic J2000)
 Element Value Uncertainty (1-sigma)   Units 
e .05816202540819906 5.0949e-08  
a 1.929335462102983 5.5635e-09 au
q 1.81712140393521 9.9138e-08 au
i 22.45890559248403 6.2605e-06 deg
node 187.4295930590412 1.1343e-05 deg
peri 174.5255363419293 4.4355e-05 deg
M 240.6089766448544 4.3417e-05 deg
tp 2459325.122950865132
(2021-Apr-20.62295086)
0.00011808 TDB
period 978.8362560878484
2.68
4.2339e-06
1.159e-08
d
yr
n .3677836796103421 1.5908e-09 deg/d
Q 2.041549520270757 5.8871e-09 au
  Orbit Determination Parameters
   # obs. used (total)      800  
   data-arc span      9946 days (27.23 yr)  
   first obs. used      1993-03-24  
   last obs. used      2020-06-16  
   planetary ephem.      DE431  
   SB-pert. ephem.      SB431-N16  
   condition code      0  
   norm. resid. RMS      .52377  
   source      ORB  
   producer      Otto Matic  
   solution date      2020-Jun-23 21:54:04  

Additional Information
 Earth MOID = .816102 au 
 Jupiter MOID = 3.13602 au 
 T_jup = 3.821 
[ show covariance matrix ]

Ephemeris | Orbit Diagram | Orbital Elements | Mission Design | Physical Parameters | Discovery Circumstances ]

Physical Parameter Table
Parameter Symbol Value Units Sigma Reference Notes
absolute magnitude H 16.5   n/a MPO459191  

49670 (1999 RZ33)          Discovered 1999-Sep-10 by LINEAR at Socorro
Reference: 20021120/Numbers.arcLast Updated: 2004-04-19

Alternate Designations
 1999 RZ33 = 2001 FZ4 
Ephemeris | Orbit Diagram | Orbital Elements | Mission Design | Physical Parameters | Discovery Circumstances ]
ABOUT SSD CREDITS/AWARDS PRIVACY/COPYRIGHT GLOSSARY LINKS
FirstGov 2020-Aug-14 18:31 UT
(server date/time)  
NASA Home Page
Site Manager:   Ryan S. Park
Webmaster  Alan B. Chamberlin